MUOS-4

Last updated on Tue Oct 08 2024 00:02:40 GMT+0000 (Coordinated Universal Time)

1 40887U 15044A 24281.23417486 -.00000082 00000+0 00000+0 0 9992 2 40887 3.2635 34.5230 0051655 359.9609 141.2513 1.00272606 33364
UTC large
Height (km)
Speed (km/s)
/
Latitude / Longitude
Inclination (degrees)
Orbital Period (minutes)
Azimuth
Elevation
Range (km)
Doppler Factor

Next 0 passes for location: London (51.5072 / 0.1276)

Sorry there are no passes over London.